{"data":{"norad_id":67860,"epoch":"2026-09-19T22:33:33.026976Z","epoch_age_seconds":114866,"freshness":"FRESH","line1":"1 67860U 26034L   26262.93996559  .00022516  00000+0  67535-3 0  9999","line2":"2 67860  53.1598  20.0313 0000960  75.5800 284.5309 15.34407740 33832","mean_motion":15.3440774,"eccentricity":9.6e-5,"inclination_deg":53.1598,"raan_deg":20.0313,"arg_perigee_deg":75.58,"mean_anomaly_deg":284.5309,"bstar":0.00067535,"rev_number":3383,"period_min":93.847284685881,"perigee_km":462.02351693808,"apogee_km":463.33695384728,"semimajor_km":6840.8172353927,"source":"CELESTRAK","updated_at":"2026-09-20T09:00:43.675492Z"}}